Terminal Aerodrome Forecast
Issued by NWS

Home | Current Version | Previous Version | Text Only | Print | Product List | Glossary On
Versions: 1 2 3 4 5 6 7 8 9 10 11 12 13 14
000
FTUS43 KEAX 241100
TAFSTJ
TAF
KSTJ 241120Z 2412/2512 21012KT P6SM SKC
     FM241400 28013G18KT P6SM SCT040
     FM242300 VRB03KT P6SM BKN035=

USA.gov is the U.S. government's official web portal to all federal, state and local government web resources and services.